Home   Weather   Trinidad   Past weeks
Flag for Cuba

Past Weather in Trinidad, Cuba — Yesterday and Last 2 Weeks

Now
79 °F

Warm.


Feels Like: 83 °F
Forecast: 89 / 77 °F
Wind: 5 mph from East

Location: Cienfuegos - Las Villas

Current Time: Jul 16, 2019 at 8:56:43 pm

Latest Report: Jul 16, 2019 at 7:58 pm


Visibility: N/A

Pressure: 30.04 "Hg

Humidity: 94%

Dew Point: 77 °F

Location of TrinidadLocation

Past Weather in Trinidad — Graph

°F

Trinidad Temperature Yesterday

Maximum temperature yesterday: 91 °F (at 11:51 am)
Minimum temperature yesterday: 75 °F (at 5:59 am)
Average temperature yesterday: 83 °F

High & Low Weather Summary for the Past Weeks

 TemperatureHumidityPressure
High97 °F (Jul 13, 2:51 pm)100% (Jul 2, 3:59 am)30.09 "Hg (Jul 2, 3:59 am)
Low72 °F (Jul 9, 12:59 am)39% (Jul 13, 3:51 pm)29.95 "Hg (Jul 2, 5:59 pm)
Average82 °F80%30.02 "Hg
* Reported Jul 1 5:59 pm — Jul 16 5:59 pm, Trinidad. Weather by CustomWeather, © 2019

Note: Actual official high and low records may vary slightly from our data, if they occured in-between our weather recording intervals... More about our weather records

Advertising

Trinidad Weather History for the Previous 24 Hours

Scroll right to see more
 ConditionsComfort  
Time TempWeatherWind HumidityBarometerVisibility
5:59 pm
Tue, Jul 16
90 °FHot.9 mph63%30.01 "HgN/A
4:59 pm91 °FHot.9 mph59%30.01 "HgN/A
3:50 pm90 °FScattered clouds.10 mph67%30.04 "HgN/A
2:51 pm91 °FScattered clouds.9 mph63%30.04 "HgN/A
1:50 pm91 °FScattered clouds.8 mph56%30.07 "HgN/A
12:51 pm91 °FScattered clouds.7 mph52%30.07 "HgN/A
11:52 am91 °FScattered clouds.7 mph59%30.09 "HgN/A
10:53 am86 °FPassing clouds.6 mph70%30.09 "HgN/A
9:50 am86 °FScattered clouds.5 mph75%30.09 "HgN/A
8:50 am82 °FScattered clouds.6 mph84%30.07 "HgN/A
7:59 am77 °FWarm.6 mph94%30.07 "HgN/A
6:58 am75 °FMild.3 mph94%30.07 "HgN/A
5:59 am75 °FMild.5 mph100%30.04 "HgN/A
4:58 am77 °FWarm.7 mph94%30.04 "HgN/A
3:59 am77 °FWarm.6 mph94%30.04 "HgN/A
2:59 am77 °FWarm.5 mph94%30.04 "HgN/A
1:59 am77 °FWarm.5 mph94%30.04 "HgN/A
12:59 am77 °FWarm.5 mph94%30.07 "HgN/A
11:58 pm
Mon, Jul 15
77 °FWarm.3 mph100%30.07 "HgN/A
10:59 pm77 °FWarm.3 mph100%30.07 "HgN/A
9:59 pm77 °FWarm.5 mph100%30.07 "HgN/A
8:59 pm79 °FWarm.1 mph94%30.04 "HgN/A
Weather by CustomWeather, © 2019

See weather overview

LIVE PARTIAL LUNAR ECLIPSE – Watch the eclipse as it happens